GW0326 Weather Reports


Display with metric or nautical units.
time (UTC)temp
F
wind
direction
speed
MPH
gust
MPH
rain 1hr
in
rain 24hr
in
rain mn
in
humidity
%
barometer
mb
20260901222543 76 206 4.0 10.0 0.00 0.09 0.01 28 1024.4
20260901222047 77 277 1.0 9.0 0.00 0.09 0.01 28 1024.4
20260901221618 77 0 1.0 7.0 0.00 0.09 0.01 27 1024.4
20260901221047 77 302 0.0 10.0 0.00 0.09 0.01 27 1024.3
20260901220543 77 295 1.0 13.0 0.00 0.09 0.01 27 1024.2
20260901220116 78 0 2.0 13.0 0.00 0.09 0.01 26 1024.4
20260901215547 78 263 1.0 7.0 0.00 0.09 0.01 28 1024.3
20260901215047 77 0 0.0 7.0 0.00 0.09 0.01 28 1024.4
20260901214557 77 0 0.0 8.0 0.00 0.09 0.01 29 1024.5
20260901214046 76 355 0.0 8.0 0.00 0.09 0.01 29 1024.7
20260901213548 75 250 2.0 11.0 0.00 0.09 0.01 29 1024.6
20260901213107 74 210 2.0 11.0 0.00 0.09 0.01 31 1024.7
20260901212547 73 286 2.0 10.0 0.00 0.09 0.01 29 1024.7
20260901212051 73 279 0.0 13.0 0.00 0.09 0.01 31 1024.8
20260901211557 73 317 1.0 15.0 0.00 0.09 0.01 29 1024.8
20260901211046 74 0 1.0 15.0 0.00 0.09 0.01 30 1024.9
20260901210544 75 285 3.0 15.0 0.00 0.09 0.01 29 1025.1
20260901210057 75 257 3.0 9.0 0.00 0.09 0.01 30 1025.0
20260901205548 75 0 2.0 9.0 0.00 0.09 0.01 31 1025.0
20260901205051 74 0 0.0 10.0 0.00 0.09 0.01 30 1025.0
20260901204606 74 0 2.0 10.0 0.00 0.09 0.01 29 1025.1
20260901204046 74 293 1.0 12.0 0.00 0.09 0.01 30 1025.2
20260901203546 74 277 1.0 12.0 0.00 0.09 0.01 29 1025.2
20260901203056 75 0 2.0 10.0 0.00 0.09 0.01 29 1025.2
20260901202546 76 188 2.0 10.0 0.00 0.09 0.01 29 1025.3
20260901202046 77 0 3.0 11.0 0.00 0.09 0.01 28 1025.3
20260901201600 77 260 2.0 11.0 0.00 0.09 0.01 30 1025.3
20260901201048 77 197 0.0 8.0 0.00 0.09 0.01 30 1025.3
20260901200547 76 208 2.0 10.0 0.00 0.09 0.01 32 1025.3
20260901200056 76 246 1.0 10.0 0.00 0.09 0.01 33 1025.5
20260901195544 75 0 3.0 10.0 0.00 0.09 0.01 34 1025.4
20260901195047 75 0 0.0 13.0 0.00 0.09 0.01 34 1025.4
20260901194556 76 0 2.0 13.0 0.00 0.09 0.01 32 1025.4
20260901194050 76 0 1.0 9.0 0.00 0.09 0.01 33 1025.5
20260901193546 76 0 0.0 9.0 0.00 0.09 0.01 32 1025.4
20260901193052 76 251 1.0 11.0 0.00 0.09 0.01 32 1025.4
20260901192546 76 198 0.0 11.0 0.00 0.09 0.01 32 1025.3
20260901192046 75 0 2.0 10.0 0.00 0.09 0.01 33 1025.3
20260901191610 74 305 2.0 10.0 0.00 0.09 0.01 35 1025.5
20260901191046 73 0 0.0 5.0 0.00 0.09 0.01 36 1025.5
20260901190549 73 0 0.0 5.0 0.00 0.09 0.01 36 1025.6
20260901190055 73 0 0.0 5.0 0.00 0.09 0.01 36 1025.6
20260901185547 74 9 0.0 5.0 0.01 0.09 0.01 36 1025.7
20260901185043 74 320 0.0 6.0 0.01 0.09 0.01 37 1025.8
20260901184550 74 0 0.0 7.0 0.01 0.09 0.01 38 1026.0
20260901184046 74 283 0.0 8.0 0.01 0.09 0.01 35 1025.9
20260901183546 74 188 1.0 8.0 0.01 0.09 0.01 35 1025.9
20260901183102 74 252 2.0 11.0 0.01 0.09 0.01 36 1026.1
20260901182547 73 0 1.0 12.0 0.01 0.09 0.01 35 1026.1
20260901182044 73 206 1.0 12.0 0.01 0.09 0.01 36 1026.1
20260901181605 73 227 1.0 9.0 0.01 0.09 0.01 38 1026.2
20260901181045 73 0 1.0 10.0 0.01 0.09 0.01 37 1026.2
20260901180547 73 211 1.0 10.0 0.01 0.09 0.01 38 1026.3
20260901180055 72 267 2.0 9.0 0.01 0.09 0.01 37 1026.4
20260901175544 72 278 1.0 10.0 0.00 0.08 0.00 38 1026.4
20260901175046 72 0 2.0 11.0 0.00 0.08 0.00 38 1026.4
20260901174552 71 220 2.0 11.0 0.00 0.08 0.00 38 1026.4
20260901174047 71 217 3.0 13.0 0.00 0.08 0.00 39 1026.5
20260901173546 71 308 2.0 13.0 0.00 0.08 0.00 39 1026.5
20260901173103 71 272 1.0 12.0 0.00 0.08 0.00 41 1026.5
20260901172544 70 307 1.0 12.0 0.00 0.08 0.00 42 1026.5
20260901172046 70 209 2.0 9.0 0.00 0.08 0.00 42 1026.7
20260901171601 70 253 1.0 8.0 0.00 0.08 0.00 43 1026.6
20260901171047 70 0 2.0 10.0 0.00 0.08 0.00 42 1026.7
20260901170547 69 0 0.0 10.0 0.00 0.08 0.00 42 1026.7
20260901170100 69 0 2.0 10.0 0.00 0.08 0.00 44 1026.7
20260901165543 69 274 2.0 11.0 0.00 0.08 0.00 45 1026.7
20260901165047 69 245 1.0 12.0 0.00 0.08 0.00 45 1026.7
20260901164556 68 213 2.0 12.0 0.00 0.08 0.00 45 1026.7
20260901164048 68 171 1.0 10.0 0.00 0.08 0.00 45 1026.5
20260901163546 68 262 3.0 11.0 0.00 0.08 0.00 46 1026.5
20260901163055 68 217 1.0 11.0 0.00 0.08 0.00 47 1026.4
20260901162545 67 0 4.0 11.0 0.00 0.08 0.00 49 1026.4
20260901162047 66 0 1.0 13.0 0.00 0.08 0.00 49 1026.4
20260901161607 66 0 3.0 13.0 0.00 0.08 0.00 51 1026.4
20260901161046 65 0 2.0 10.0 0.00 0.08 0.00 54 1026.4
20260901160547 65 0 2.0 10.0 0.00 0.08 0.00 56 1026.4
20260901160109 64 0 1.0 10.0 0.00 0.08 0.00 57 1026.4
20260901155544 64 186 2.0 9.0 0.00 0.08 0.00 57 1026.5
20260901155047 63 215 2.0 8.0 0.00 0.08 0.00 60 1026.5
20260901154600 63 0 0.0 9.0 0.00 0.08 0.00 62 1026.6
20260901154046 62 263 2.0 9.0 0.00 0.08 0.00 62 1026.6
20260901153547 61 254 1.0 9.0 0.00 0.08 0.00 65 1026.6
20260901153056 61 297 1.0 9.0 0.00 0.08 0.00 64 1026.6
20260901152543 61 0 0.0 8.0 0.00 0.08 0.00 66 1026.7
20260901152049 61 0 0.0 8.0 0.00 0.08 0.00 67 1026.7
20260901151611 60 297 1.0 8.0 0.00 0.08 0.00 67 1026.7
20260901151049 60 0 0.0 7.0 0.00 0.08 0.00 68 1026.8
20260901150546 60 0 1.0 7.0 0.00 0.08 0.00 68 1026.7
20260901150057 60 0 0.0 6.0 0.00 0.08 0.00 69 1026.7
20260901145547 60 0 0.0 4.0 0.00 0.08 0.00 68 1026.6
20260901145046 59 0 0.0 6.0 0.00 0.08 0.00 69 1026.6
20260901144559 59 286 0.0 6.0 0.00 0.08 0.00 69 1026.5
20260901144047 58 0 0.0 5.0 0.00 0.08 0.00 72 1026.5
20260901143546 58 0 0.0 5.0 0.00 0.08 0.00 73 1026.5
20260901143059 58 0 0.0 3.0 0.00 0.08 0.00 74 1026.6
20260901142543 58 0 0.0 3.0 0.00 0.08 0.00 74 1026.6
20260901142046 58 0 0.0 3.0 0.00 0.08 0.00 74 1026.6
20260901141559 57 0 0.0 8.0 0.00 0.08 0.00 74 1026.7
20260901141047 57 0 0.0 8.0 0.00 0.08 0.00 75 1026.6
20260901140546 57 0 0.0 9.0 0.00 0.08 0.00 75 1026.5
20260901140057 57 0 0.0 10.0 0.00 0.08 0.00 75 1026.4
20260901135547 57 204 1.0 10.0 0.00 0.08 0.00 75 1026.4
20260901135044 57 0 1.0 10.0 0.00 0.08 0.00 76 1026.4
20260901134558 57 0 2.0 8.0 0.00 0.08 0.00 76 1026.3
20260901134046 56 0 0.0 4.0 0.00 0.08 0.00 77 1026.2
20260901133548 56 269 0.0 4.0 0.00 0.08 0.00 77 1026.0
20260901133057 56 0 0.0 4.0 0.00 0.08 0.00 78 1025.9
20260901132550 55 263 0.0 3.0 0.00 0.08 0.00 79 1025.9
20260901132046 55 0 0.0 3.0 0.00 0.08 0.00 79 1025.9
20260901131548 55 0 0.0 2.0 0.00 0.08 0.00 80 1025.9
20260901131047 55 0 0.0 2.0 0.00 0.08 0.00 80 1025.9
20260901130547 55 0 0.0 0.0 0.00 0.08 0.00 80 1025.8
20260901130106 55 0 0.0 3.0 0.00 0.08 0.00 81 1025.7
20260901125543 55 0 0.0 3.0 0.00 0.08 0.00 81 1025.7
20260901125046 55 0 0.0 3.0 0.00 0.08 0.00 81 1025.7
20260901124556 54 0 0.0 1.0 0.00 0.08 0.00 81 1025.6
20260901124043 54 0 0.0 1.0 0.00 0.08 0.00 82 1025.4
20260901123546 54 0 0.0 2.0 0.00 0.08 0.00 82 1025.4
20260901123055 54 0 0.0 2.0 0.00 0.08 0.00 82 1025.2
20260901122545 54 0 0.0 2.0 0.00 0.08 0.00 83 1025.1
20260901122045 54 0 0.0 4.0 0.00 0.08 0.00 83 1025.0
20260901121559 54 0 0.0 4.0 0.00 0.08 0.00 84 1024.9
20260901121045 54 0 0.0 1.0 0.00 0.08 0.00 84 1025.1
20260901120547 54 0 0.0 1.0 0.00 0.08 0.00 84 1025.1
20260901120054 54 0 0.0 0.0 0.00 0.08 0.00 86 1025.0
20260901115544 53 0 0.0 3.0 0.00 0.08 0.00 86 1024.9
20260901115046 53 0 0.0 3.0 0.00 0.08 0.00 87 1024.8
20260901114632 53 0 0.0 0.0 0.00 0.08 0.00 87 1024.8
20260901114045 53 0 0.0 2.0 0.00 0.08 0.00 87 1024.8
20260901113550 53 0 0.0 2.0 0.00 0.08 0.00 88 1024.8
20260901113101 53 0 0.0 0.0 0.00 0.08 0.00 88 1024.9
20260901112544 53 0 0.0 0.0 0.00 0.08 0.00 89 1024.9
20260901112045 53 0 0.0 0.0 0.00 0.08 0.00 89 1024.8
20260901111558 53 0 0.0 2.0 0.00 0.08 0.00 89 1024.9
20260901111044 53 0 0.0 2.0 0.00 0.08 0.00 89 1024.9
20260901110543 53 0 0.0 2.0 0.00 0.08 0.00 90 1024.9
20260901110058 52 0 0.0 0.0 0.00 0.08 0.00 90 1024.9
20260901105548 53 0 0.0 0.0 0.00 0.08 0.00 90 1025.0
20260901105044 53 0 0.0 0.0 0.00 0.08 0.00 90 1025.1
20260901104550 53 0 0.0 0.0 0.00 0.08 0.00 90 1025.0
20260901104047 53 0 0.0 0.0 0.00 0.08 0.00 90 1025.0
20260901103545 53 0 0.0 0.0 0.00 0.08 0.00 90 1025.1
20260901103059 53 0 0.0 0.0 0.00 0.08 0.00 90 1024.9
20260901102545 53 0 0.0 0.0 0.00 0.08 0.00 90 1024.9
20260901102047 53 0 0.0 0.0 0.00 0.08 0.00 90 1025.0
20260901101601 53 0 0.0 0.0 0.00 0.08 0.00 91 1025.2
20260901101044 53 0 0.0 0.0 0.00 0.08 0.00 91 1025.2
20260901100546 53 0 0.0 0.0 0.00 0.08 0.00 92 1025.4
20260901095545 53 0 0.0 0.0 0.00 0.08 0.00 92 1025.7
20260901095044 53 0 0.0 0.0 0.00 0.08 0.00 92 1025.8
20260901094558 53 0 0.0 0.0 0.00 0.08 0.00 92 1025.8
20260901094043 53 0 0.0 0.0 0.00 0.08 0.00 92 1025.6
20260901093548 53 0 0.0 0.0 0.00 0.08 0.00 92 1025.7
20260901093104 53 0 0.0 0.0 0.00 0.08 0.00 92 1025.8
20260901092545 53 0 0.0 0.0 0.00 0.08 0.00 93 1025.9
20260901092045 53 0 0.0 0.0 0.00 0.08 0.00 93 1025.9
20260901091559 53 0 0.0 0.0 0.00 0.08 0.00 93 1026.0
20260901091046 53 0 0.0 0.0 0.00 0.08 0.00 93 1025.9
20260901090544 53 0 0.0 0.0 0.00 0.08 0.00 93 1025.9
20260901090056 53 0 0.0 0.0 0.00 0.08 0.00 92 1026.0
20260901085544 53 0 0.0 0.0 0.00 0.08 0.00 92 1026.1
20260901085044 53 0 0.0 0.0 0.00 0.08 0.00 92 1026.1
20260901084608 53 0 0.0 0.0 0.00 0.08 0.00 92 1026.1
20260901084044 53 0 0.0 0.0 0.00 0.08 0.00 92 1026.2
20260901083545 53 0 0.0 0.0 0.00 0.08 0.00 92 1026.0
20260901083059 53 0 0.0 0.0 0.00 0.08 0.00 92 1026.1
20260901082546 53 0 0.0 0.0 0.00 0.08 0.00 92 1026.3
20260901082044 53 0 0.0 0.0 0.00 0.08 0.00 92 1026.4
20260901081556 53 0 0.0 0.0 0.00 0.08 0.00 92 1026.6
20260901081044 53 0 0.0 0.0 0.00 0.08 0.00 92 1026.5
20260901080543 53 0 0.0 0.0 0.00 0.08 0.00 92 1026.6
20260901080107 54 0 0.0 0.0 0.00 0.08 0.00 92 1026.6
20260901075545 54 0 0.0 0.0 0.00 0.08 0.00 92 1026.7
20260901075044 54 0 0.0 0.0 0.00 0.08 0.00 92 1026.7
20260901074554 54 0 0.0 0.0 0.00 0.08 0.00 92 1026.7
20260901074047 54 0 0.0 0.0 0.00 0.08 0.00 92 1026.9
20260901073547 54 0 0.0 0.0 0.00 0.08 0.00 92 1027.0
20260901073104 54 0 0.0 0.0 0.00 0.08 0.00 92 1027.0
20260901072545 54 0 0.0 0.0 0.00 0.08 0.00 92 1026.9
20260901072045 54 0 0.0 0.0 0.00 0.08 0.00 92 1027.0
20260901071559 54 0 0.0 0.0 0.00 0.08 0.00 92 1027.0
20260901071046 54 0 0.0 0.0 0.00 0.08 0.00 92 1027.0
20260901070544 54 0 0.0 0.0 0.00 0.08 0.00 92 1027.0
20260901070107 54 0 0.0 0.0 0.00 0.08 0.00 92 1027.0
20260901065544 54 0 0.0 0.0 0.01 0.08 0.00 92 1027.0
20260901065047 54 0 0.0 0.0 0.01 0.08 0.00 92 1027.0
20260901064601 54 0 0.0 0.0 0.01 0.08 0.00 92 1027.0
20260901064044 54 0 0.0 0.0 0.01 0.08 0.00 92 1027.0
20260901063546 54 0 0.0 0.0 0.01 0.08 0.00 92 1027.0
20260901063058 54 0 0.0 0.0 0.01 0.08 0.00 91 1027.0
20260901062548 54 0 0.0 0.0 0.01 0.08 0.00 91 1027.0
20260901062046 54 0 0.0 0.0 0.01 0.08 0.00 91 1026.8
20260901061559 54 0 0.0 0.0 0.01 0.08 0.00 91 1026.7
20260901061044 54 0 0.0 1.0 0.01 0.08 0.00 91 1026.9
20260901060544 54 0 0.0 1.0 0.01 0.08 0.00 90 1027.1
20260901060057 54 0 0.0 0.0 0.01 0.08 0.00 90 1027.2
20260901055545 54 0 0.0 0.0 0.00 0.07 0.07 90 1027.1
20260901055044 54 0 0.0 0.0 0.00 0.07 0.07 90 1026.9
20260901054553 54 0 0.0 0.0 0.00 0.07 0.07 90 1026.8
20260901054046 54 0 0.0 0.0 0.00 0.07 0.07 90 1026.9
20260901053546 54 0 0.0 0.0 0.00 0.07 0.07 90 1027.0
20260901053057 54 0 0.0 0.0 0.00 0.07 0.07 90 1027.0
20260901052549 54 0 0.0 0.0 0.00 0.07 0.07 90 1027.0
20260901052044 54 0 0.0 0.0 0.00 0.07 0.07 90 1027.1
20260901051557 54 0 0.0 0.0 0.00 0.07 0.07 90 1027.2
20260901051045 54 0 0.0 0.0 0.00 0.07 0.07 91 1027.3
20260901050545 54 0 0.0 0.0 0.00 0.07 0.07 91 1027.2
20260901050054 54 0 0.0 0.0 0.00 0.07 0.07 91 1027.3
20260901045546 54 0 0.0 0.0 0.00 0.07 0.07 91 1027.3
20260901045044 54 0 0.0 0.0 0.00 0.07 0.07 91 1027.3
20260901044601 54 0 0.0 0.0 0.00 0.07 0.07 91 1027.3
20260901044045 54 0 0.0 0.0 0.00 0.07 0.07 91 1027.3
20260901043545 54 0 0.0 0.0 0.00 0.07 0.07 91 1027.3
20260901043059 54 0 0.0 0.0 0.00 0.07 0.07 91 1027.2
20260901042548 54 0 0.0 0.0 0.00 0.07 0.07 91 1027.2
20260901042046 54 0 0.0 0.0 0.00 0.07 0.07 91 1027.2
20260901041604 55 0 0.0 0.0 0.00 0.07 0.07 91 1027.1
20260901041050 55 0 0.0 0.0 0.00 0.07 0.07 90 1027.0
20260901040546 55 0 0.0 0.0 0.00 0.07 0.07 91 1027.0
20260901040054 55 0 0.0 0.0 0.01 0.07 0.07 91 1026.9
20260901035545 55 0 0.0 0.0 0.02 0.07 0.07 90 1026.9
20260901035045 55 0 0.0 0.0 0.02 0.07 0.07 90 1026.7
20260901034602 55 0 0.0 0.0 0.02 0.07 0.07 89 1026.5
20260901034044 55 0 0.0 0.0 0.02 0.07 0.07 90 1026.7
20260901033546 55 0 0.0 0.0 0.02 0.07 0.07 90 1027.3
20260901033119 55 0 0.0 0.0 0.03 0.07 0.07 90 1027.7
20260901032546 55 0 0.0 0.0 0.03 0.07 0.07 90 1028.0
20260901032048 55 0 0.0 0.0 0.03 0.07 0.07 90 1028.3
20260901031604 55 0 0.0 0.0 0.04 0.07 0.07 90 1028.4
20260901031044 55 0 0.0 0.0 0.04 0.07 0.07 89 1028.1
20260901030548 56 0 0.0 1.0 0.03 0.06 0.06 89 1028.4
20260901030104 56 0 0.0 2.0 0.03 0.06 0.06 88 1028.6
20260901025547 56 0 0.0 7.0 0.02 0.05 0.05 88 1028.6
20260901025046 56 0 0.0 10.0 0.02 0.05 0.05 87 1028.5
20260901024600 56 312 1.0 10.0 0.02 0.05 0.05 86 1028.5
20260901024045 57 0 0.0 7.0 0.02 0.05 0.05 86 1028.4
20260901023546 57 0 0.0 8.0 0.02 0.05 0.05 85 1028.3
20260901023058 57 0 0.0 11.0 0.01 0.04 0.04 84 1028.2
20260901022546 58 0 0.0 11.0 0.01 0.04 0.04 83 1028.2
20260901022043 58 255 2.0 11.0 0.01 0.04 0.04 81 1028.1
20260901021606 58 261 1.0 9.0 0.00 0.03 0.03 81 1027.7
20260901021046 58 0 0.0 4.0 0.00 0.03 0.03 81 1027.2
20260901020546 58 0 0.0 0.0 0.00 0.03 0.03 80 1026.9
20260901020053 58 0 0.0 4.0 0.00 0.03 0.03 80 1026.8
20260901015546 57 0 0.0 5.0 0.00 0.03 0.03 81 1026.7
20260901015045 57 0 0.0 5.0 0.00 0.03 0.03 81 1026.6
20260901014601 57 0 0.0 1.0 0.00 0.03 0.03 81 1026.7
20260901014045 57 0 0.0 2.0 0.00 0.03 0.03 81 1026.7
20260901013547 57 0 0.0 2.0 0.00 0.03 0.03 81 1026.7
20260901013112 57 0 0.0 2.0 0.00 0.03 0.03 83 1026.7
20260901012546 57 0 0.0 0.0 0.01 0.03 0.03 83 1026.7
20260901012045 57 0 0.0 0.0 0.01 0.03 0.03 84 1026.8
20260901011612 57 0 0.0 3.0 0.01 0.03 0.03 84 1026.8
20260901011046 57 0 0.0 3.0 0.02 0.03 0.03 85 1026.9
20260901010549 57 0 0.0 0.0 0.03 0.03 0.03 85 1026.9
20260901010111 57 0 0.0 0.0 0.03 0.03 0.03 86 1027.0
20260901005545 57 0 0.0 3.0 0.03 0.03 0.03 86 1027.0
20260901005049 57 0 0.0 3.0 0.03 0.03 0.03 87 1027.1
20260901004600 57 0 0.0 3.0 0.03 0.03 0.03 87 1027.3
20260901004046 57 256 0.0 3.0 0.03 0.03 0.03 86 1027.6
20260901003550 57 0 0.0 2.0 0.03 0.03 0.03 85 1027.5
20260901003059 58 0 0.0 4.0 0.03 0.03 0.03 84 1027.3
20260901002547 58 304 0.0 4.0 0.02 0.02 0.02 83 1027.4
20260901002048 59 0 0.0 9.0 0.02 0.02 0.02 81 1027.7
20260901001555 61 248 0.0 12.0 0.02 0.02 0.02 77 1027.5
20260901001046 63 238 2.0 12.0 0.01 0.01 0.01 69 1027.5
20260901000546 66 360 4.0 12.0 0.00 0.00 0.00 60 1027.4
20260901000055 67 0 3.0 9.0 0.00 0.00 0.00 52 1027.1
20260831235546 68 0 0.0 3.0 0.00 0.00 0.00 45 1026.8
20260831235046 69 0 0.0 1.0 0.00 0.00 0.00 44 1026.4
20260831234602 69 0 0.0 4.0 0.00 0.00 0.00 43 1026.3
20260831234046 70 0 0.0 4.0 0.00 0.00 0.00 42 1026.2
20260831233544 70 0 0.0 2.0 0.00 0.00 0.00 42 1026.2
20260831233103 70 0 0.0 2.0 0.00 0.00 0.00 41 1026.2
20260831232545 70 0 0.0 0.0 0.00 0.00 0.00 42 1026.1
20260831232049 70 0 0.0 0.0 0.00 0.00 0.00 41 1026.1
20260831231559 71 0 0.0 0.0 0.00 0.00 0.00 41 1026.2
20260831231047 71 0 0.0 0.0 0.00 0.00 0.00 41 1026.2
20260831230550 71 0 0.0 4.0 0.00 0.00 0.00 41 1026.3
20260831230055 71 0 0.0 6.0 0.00 0.00 0.00 41 1026.2
20260831225549 71 41 1.0 7.0 0.00 0.00 0.00 41 1026.3
20260831225045 71 0 1.0 7.0 0.00 0.00 0.00 40 1026.4
20260831224600 71 0 0.0 6.0 0.00 0.00 0.00 40 1026.4
20260831224049 71 48 0.0 6.0 0.00 0.00 0.00 40 1026.4
20260831223550 72 50 1.0 9.0 0.00 0.00 0.00 39 1026.4
20260831223059 72 55 4.0 9.0 0.00 0.00 0.00 39 1026.4